Wind_Speed
59 57 55 54 55 57 59 61 61 60 59 58 53 51 53 52 51 51 50 48 47 46 46 47 45 44 45 47 49 50 48 47 48 49 49 48 47 47 46 44 43 43 39 34 34 36 34 33 33 33 33 33 33 32 32 31 30 30 30 30 32 34 35
57 55 53 55 57 59 61 63 64 63 63 62 57 52 53 53 50 50 49 48 47 45 44 45 45 45 45 46 49 49 48 47 47 49 50 49 48 47 46 45 43 43 41 36 34 35 34 33 32 32 32 33 32 31 31 31 30 29 29 30 31 32 33
56 55 55 58 60 62 63 64 65 65 64 64 59 52 52 53 50 49 48 47 47 45 44 45 45 45 46 46 48 49 47 46 47 49 50 50 49 48 47 45 44 44 42 38 35 35 34 33 32 31 31 32 31 30 30 30 30 29 29 29 30 31 32
56 56 57 59 61 63 65 65 67 67 65 65 60 52 51 53 50 48 48 46 46 45 44 44 45 45 46 47 48 48 48 46 47 48 50 51 51 49 47 45 44 44 42 39 37 36 34 33 32 31 31 31 31 29 29 29 29 29 29 29 29 29 30
57 57 58 59 61 64 66 67 67 67 66 65 60 52 50 53 51 48 47 46 45 46 45 45 45 45 46 47 48 48 48 46 46 48 49 50 52 50 48 46 45 44 43 41 39 37 35 34 32 30 30 31 30 28 27 28 29 29 28 28 28 28 29
57 57 57 59 61 64 66 67 68 68 67 65 61 54 50 52 52 49 46 46 46 46 46 46 46 45 46 47 48 48 48 45 44 47 48 49 51 51 48 46 45 44 43 43 40 38 36 35 32 30 30 30 29 27 26 27 28 28 28 28 28 27 28
57 57 57 58 60 62 64 66 67 68 67 65 61 56 51 52 52 49 46 45 45 46 47 46 45 45 45 45 47 47 46 44 43 46 47 48 49 50 49 47 46 45 44 43 41 39 37 35 32 30 30 29 28 26 25 27 27 27 28 28 27 27 27
57 56 57 58 59 60 62 64 66 66 67 65 61 56 51 50 51 49 46 45 45 46 46 45 44 44 43 44 46 47 45 42 42 44 46 46 48 49 50 49 47 46 45 44 42 39 37 36 33 31 30 29 28 26 25 26 26 26 27 28 27 27 26
57 56 55 56 58 59 60 61 62 63 64 64 60 54 50 48 49 48 45 44 45 46 45 45 43 42 42 44 46 45 43 41 41 43 45 45 46 48 49 49 48 47 46 44 43 40 38 37 34 31 30 30 28 26 25 25 25 25 26 27 26 26 26
58 56 55 54 55 57 58 59 59 59 60 60 56 51 49 47 46 46 45 45 45 45 45 43 42 41 41 43 44 43 41 40 39 41 43 43 44 46 47 49 49 48 47 45 43 40 38 38 35 31 31 30 28 27 25 24 24 25 26 25 25 25 25
58 57 55 54 53 54 55 55 55 55 55 54 51 48 47 47 45 45 44 44 44 44 43 42 41 40 40 42 43 41 40 38 38 39 42 42 42 44 46 48 49 49 47 45 43 41 39 38 35 31 31 30 29 28 25 24 24 25 25 25 24 24 24
58 57 56 54 52 52 52 51 51 50 50 49 46 44 44 45 45 45 43 42 42 42 41 40 39 38 40 42 42 40 38 37 37 39 41 41 41 42 45 47 49 48 46 45 43 41 40 38 33 31 31 30 30 29 26 24 24 24 24 24 23 23 23
58 56 55 53 52 50 49 48 47 46 46 44 41 41 40 41 44 45 43 41 40 39 38 38 36 37 39 41 40 39 37 37 37 38 40 41 41 41 43 45 47 47 46 44 43 41 39 36 33 31 31 31 31 30 27 25 24 24 24 23 23 23 23
57 55 53 51 49 47 46 45 43 42 41 38 37 38 38 39 43 44 43 41 39 37 37 35 35 37 39 40 39 37 36 36 38 38 39 40 41 41 42 44 45 46 45 44 43 41 37 34 32 31 31 32 32 30 28 26 25 23 23 22 22 23 23
56 54 51 48 46 44 43 42 40 38 36 35 35 36 36 37 40 42 43 42 39 37 36 35 35 37 39 39 38 36 35 36 37 37 38 39 39 40 41 42 43 42 42 42 42 39 35 33 32 31 31 32 32 30 29 28 25 23 23 22 23 23 23
56 52 49 45 43 41 40 38 37 35 33 33 33 32 33 35 38 41 43 42 39 37 36 36 37 37 37 37 35 33 33 34 35 36 36 38 39 39 40 40 39 38 39 40 39 37 35 33 32 31 31 32 31 30 30 29 25 23 23 22 22 23 22
54 50 46 42 40 38 37 35 33 31 30 30 30 30 31 34 36 40 42 41 40 39 37 37 37 36 35 34 33 31 31 32 34 35 36 37 38 37 37 37 35 35 37 39 38 36 35 33 32 31 31 32 31 31 31 29 25 23 23 22 22 22 22
51 46 42 39 37 35 35 32 29 27 27 27 27 26 28 32 35 38 40 40 40 40 38 36 36 34 33 33 31 29 29 31 33 35 36 36 35 35 35 34 32 34 36 38 37 37 36 34 32 32 33 33 32 32 31 28 25 24 24 22 20 21 21
46 43 39 36 34 33 32 29 26 24 24 24 24 25 27 31 34 36 38 39 41 41 37 34 32 30 31 31 29 28 29 30 32 34 34 33 34 34 32 29 29 32 34 36 38 37 36 34 33 34 34 33 32 32 31 28 25 25 23 20 19 19 20
41 39 36 33 31 30 28 26 24 22 22 23 24 25 27 30 33 35 38 40 41 41 35 30 29 29 29 29 28 28 29 30 32 32 31 31 33 31 27 25 28 31 33 36 37 36 35 34 34 34 34 33 32 32 30 28 26 25 22 19 18 19 20
37 35 33 31 29 27 25 23 22 21 21 23 24 25 26 30 33 35 37 39 40 39 33 29 28 28 27 26 26 27 28 29 30 29 29 31 30 26 24 27 30 31 33 36 36 36 35 35 34 34 33 32 31 30 28 27 24 22 19 18 18 20 20
34 32 30 27 25 24 22 20 20 21 21 23 24 25 27 30 33 35 37 38 38 35 30 28 27 26 25 25 25 26 28 29 28 27 28 28 25 24 27 29 30 31 33 34 35 36 36 35 34 33 32 31 30 28 27 26 21 18 17 18 19 20 20
31 29 27 25 21 19 19 18 19 20 21 22 24 25 28 31 33 33 35 37 35 31 27 26 26 25 24 24 25 26 28 29 28 26 26 24 24 26 28 28 29 31 32 33 34 35 35 34 33 31 30 29 28 26 26 24 19 16 18 19 19 20 20
28 27 25 21 18 16 16 16 17 18 20 21 22 24 28 33 34 33 33 33 32 28 25 24 23 23 23 24 25 26 27 29 28 27 25 24 25 26 27 27 29 30 30 32 34 34 33 32 30 28 26 25 25 25 25 23 19 19 20 21 20 20 21
25 22 20 18 15 13 13 14 14 15 17 19 21 23 26 30 33 31 29 28 27 25 24 23 22 22 22 23 24 26 28 29 28 27 26 26 25 25 26 27 28 29 30 32 32 31 30 28 26 24 23 22 23 24 24 22 20 21 22 22 22 21 21
20 17 16 15 15 13 12 11 11 12 14 16 18 20 22 25 26 26 25 25 24 22 22 22 22 22 22 22 24 26 28 28 26 25 27 28 27 26 26 27 28 29 29 29 28 27 26 24 22 22 22 23 24 24 24 23 22 23 24 23 22 21 20
16 15 16 16 14 12 10 9 8 8 11 13 15 16 18 20 21 22 22 21 19 18 19 20 20 20 21 23 25 27 28 27 26 26 26 28 30 30 28 27 27 27 27 26 26 26 24 23 22 23 23 24 24 23 23 22 22 22 23 23 22 22 20
16 18 21 20 17 14 10 8 6 6 7 10 12 13 15 16 17 18 19 18 16 16 17 17 18 20 22 24 26 27 26 26 28 28 27 29 32 33 30 28 27 27 27 27 26 25 24 23 23 23 23 23 23 23 22 21 21 21 22 23 23 22 20
19 23 25 24 20 15 11 7 5 4 6 8 10 11 12 13 13 15 17 16 17 17 15 16 18 20 22 25 27 27 27 27 28 29 30 33 34 33 30 28 27 27 28 27 26 25 24 23 23 23 24 23 23 23 21 20 20 21 22 23 23 22 20
14 18 20 20 17 13 10 7 4 4 4 5 7 8 9 10 12 14 15 16 17 17 15 15 18 20 22 25 26 27 28 28 28 30 33 35 35 31 29 28 27 27 26 26 25 24 23 23 23 23 23 23 22 21 20 20 20 21 21 22 22 21 20
5 7 10 13 14 11 8 6 3 3 2 2 4 6 8 10 11 12 14 15 16 16 16 17 20 21 23 25 26 27 28 29 29 32 34 35 34 31 29 28 26 26 25 25 25 23 22 22 22 22 21 20 19 19 19 18 18 18 19 20 21 21 21
1 2 4 7 10 10 7 6 4 1 1 3 2 4 7 9 9 11 13 14 14 15 16 19 21 22 24 26 27 28 29 28 29 32 34 35 33 30 29 27 26 26 26 27 27 25 24 23 22 21 19 18 18 17 16 15 15 16 16 17 19 20 21
2 3 4 6 10 11 9 8 6 4 4 5 6 6 7 8 8 8 9 10 12 14 16 19 21 22 25 28 29 29 30 29 29 31 33 33 31 29 27 28 28 29 29 30 29 28 26 25 24 23 21 19 19 18 17 16 16 15 16 16 17 18 20
5 5 6 9 14 15 12 11 10 9 7 6 7 10 11 12 12 11 10 10 11 14 17 19 21 24 27 28 29 29 31 31 32 34 34 32 31 30 29 30 31 32 32 33 32 30 28 27 27 26 24 22 20 19 18 18 18 18 18 19 18 18 18
7 6 8 12 14 15 15 14 12 10 9 7 7 9 11 12 12 12 11 12 13 15 17 19 22 26 28 28 28 29 30 31 33 34 34 33 33 33 33 33 33 34 34 35 34 33 31 30 29 29 27 25 22 21 20 20 20 20 21 21 21 20 19
8 4 8 12 12 11 13 13 10 8 8 8 8 7 8 11 11 10 9 10 11 13 15 19 23 27 28 28 28 28 29 29 31 32 33 34 35 35 35 35 35 35 36 36 35 34 32 31 30 30 29 27 25 23 22 22 22 22 23 23 22 21 21
Wind_Direction
295 294 293 293 292 291 290 289 288 288 287 285 283 283 283 282 280 279 278 276 274 271 268 268 268 268 266 261 254 251 252 252 248 245 245 243 243 244 245 247 249 252 251 247 247 251 252 254 257 259 261 261 261 261 261 262 264 264 263 262 260 260 258
292 289 286 284 284 284 284 285 286 286 286 286 285 286 285 283 281 279 278 276 275 272 268 267 266 266 265 261 254 250 250 251 247 244 244 243 243 243 244 245 247 250 250 246 244 248 250 251 254 257 259 261 262 261 261 261 263 264 264 263 262 260 259
288 285 281 280 281 281 281 282 283 284 285 285 285 286 286 283 280 279 277 275 274 272 269 265 264 264 263 259 254 249 248 249 246 243 243 243 242 242 243 244 245 248 249 246 243 245 247 249 252 255 258 260 262 261 260 261 262 264 264 263 262 261 260
287 283 280 279 279 280 281 281 282 282 283 284 284 286 285 282 279 277 275 274 273 271 268 265 262 262 260 257 254 249 247 248 245 241 241 242 242 242 241 242 244 246 247 247 243 242 244 247 249 254 257 259 261 262 261 261 262 263 264 263 262 262 261
289 285 282 279 279 280 280 280 281 281 282 283 284 285 283 279 277 275 274 273 271 269 267 264 261 261 259 255 253 249 246 247 244 240 239 241 242 242 241 241 242 244 245 245 244 241 241 244 247 250 255 257 259 261 261 262 262 262 263 263 262 262 262
291 288 284 281 279 279 279 280 280 280 282 283 284 285 281 277 275 273 272 271 269 267 266 264 261 260 257 254 252 248 245 247 244 239 237 239 240 241 241 240 241 242 243 244 243 241 240 242 245 248 253 257 258 260 261 261 262 262 264 264 263 262 262
291 288 285 282 280 278 278 279 279 280 281 282 284 284 280 275 273 272 270 270 268 266 265 263 261 259 256 253 251 247 245 246 244 239 237 237 238 239 239 239 240 240 242 243 242 241 239 240 244 247 251 256 258 259 260 260 261 262 264 265 264 262 262
292 289 286 283 281 279 278 278 278 279 280 280 282 282 278 273 271 270 269 269 268 265 265 263 261 257 253 249 247 244 244 246 244 239 237 236 237 238 238 238 238 239 240 242 242 240 240 240 242 246 250 254 256 258 260 261 261 261 261 264 265 264 261
294 290 287 283 280 279 278 277 277 277 278 279 280 279 275 271 269 268 269 269 267 265 264 262 259 255 249 245 242 242 244 246 243 239 237 236 236 237 238 237 237 237 238 240 240 239 240 240 241 245 248 252 254 256 259 261 262 261 260 261 263 264 263
295 292 289 285 281 279 277 277 277 276 276 277 278 277 274 270 267 267 268 268 266 264 263 261 258 252 246 241 239 241 244 245 242 237 236 237 236 236 237 236 236 236 236 238 239 238 239 240 240 243 247 250 252 255 257 260 261 261 261 261 262 263 264
297 294 291 288 284 281 278 277 277 276 275 275 275 274 272 271 268 265 265 265 264 262 261 259 255 248 242 239 238 240 243 243 238 235 235 236 235 235 236 235 236 236 235 236 237 236 237 239 239 241 246 249 250 253 255 258 260 261 260 261 262 263 264
299 297 294 291 288 284 281 278 277 275 273 272 271 269 269 269 268 265 263 263 262 260 259 256 251 244 238 236 237 240 242 241 236 233 234 235 234 235 236 235 235 236 235 235 236 236 236 237 237 240 245 248 249 250 253 255 258 259 259 260 261 262 263
300 298 297 294 290 287 283 279 276 273 271 269 268 266 264 263 264 264 263 262 260 257 256 252 246 239 235 235 237 240 240 238 235 233 233 233 233 233 235 235 235 235 235 235 235 235 235 236 237 239 244 247 247 247 250 253 255 257 258 259 260 260 260
302 300 298 296 292 288 284 280 276 272 269 266 263 260 259 258 259 261 261 259 256 254 252 247 239 234 233 236 239 240 238 235 234 234 233 233 233 232 233 234 234 234 233 233 234 234 233 234 236 238 242 245 245 245 247 251 253 254 256 256 256 256 257
305 303 300 297 292 288 283 279 274 270 266 263 259 257 256 255 255 257 257 255 252 250 247 241 233 231 233 238 240 238 235 234 235 234 233 233 233 232 232 233 233 232 233 233 233 233 232 232 233 235 239 242 242 242 244 247 249 251 253 252 253 255 256
306 304 301 296 292 287 282 277 272 267 263 260 258 257 254 251 249 250 251 250 249 248 243 236 230 229 234 240 242 238 234 234 235 234 233 232 232 232 232 232 231 231 231 231 232 231 230 230 230 233 237 239 239 240 241 244 246 247 249 249 250 252 254
307 304 300 295 291 286 281 276 271 266 261 258 256 254 250 246 244 244 245 247 247 246 242 234 228 230 236 241 240 236 233 232 233 233 232 231 231 231 231 230 229 227 227 227 228 227 227 226 227 229 232 234 236 237 239 242 243 244 246 247 247 249 251
307 303 298 294 289 285 280 277 272 265 260 254 251 249 244 240 239 240 242 244 244 244 241 233 227 230 236 239 236 234 231 230 231 232 232 231 231 230 229 228 226 225 224 224 224 224 223 223 223 226 229 231 233 235 238 239 240 242 243 245 246 248 249
306 301 296 292 288 284 280 277 271 264 258 251 242 238 237 236 236 238 239 240 241 242 240 232 228 231 235 234 232 231 229 228 230 232 232 231 230 229 227 225 225 224 222 221 221 222 222 221 222 226 229 230 231 233 235 236 237 239 241 242 243 245 246
306 300 295 291 287 283 279 274 268 261 253 244 235 230 229 232 234 236 237 237 238 240 238 230 229 233 234 231 229 229 228 228 230 231 230 228 228 227 224 222 222 222 220 219 219 219 220 221 222 225 228 229 230 232 233 233 235 237 239 238 238 240 242
306 299 295 292 287 282 277 271 264 255 245 236 231 224 222 225 230 234 235 235 236 237 234 229 230 234 233 229 226 226 227 228 229 229 227 226 225 222 218 218 219 219 218 216 215 215 216 218 220 223 226 227 229 231 232 232 233 235 235 234 234 236 238
304 299 296 293 288 281 275 268 259 249 239 233 228 220 214 218 226 230 232 234 235 233 230 230 233 232 228 225 223 223 225 226 226 225 224 222 218 213 213 215 216 216 215 213 211 212 215 216 219 221 224 226 227 228 229 231 229 227 229 228 229 233 235
304 300 298 295 289 280 274 266 256 246 237 231 228 220 212 213 220 226 230 232 233 231 229 231 231 226 221 219 219 220 221 222 221 219 218 213 206 207 212 213 212 212 211 208 207 211 214 216 218 221 223 225 225 225 228 229 222 215 219 223 225 228 231
309 306 303 299 292 283 274 265 255 246 239 232 227 221 214 212 216 221 227 230 231 230 231 230 227 221 217 217 217 217 218 219 218 214 207 201 200 205 210 210 208 207 205 204 206 210 213 215 217 220 221 224 225 226 230 229 217 208 214 219 220 221 227
318 316 313 310 304 292 278 268 259 249 242 233 226 221 217 215 217 222 226 228 229 230 228 225 220 218 218 217 217 216 215 215 215 209 200 194 195 201 203 202 201 200 201 203 206 209 212 213 215 217 218 221 224 225 227 226 215 207 212 218 219 219 225
330 332 332 327 318 306 290 278 267 253 243 234 225 221 219 218 220 225 229 233 234 230 221 216 215 217 218 217 216 215 214 212 209 204 197 191 189 191 193 193 195 197 199 202 205 207 210 210 211 212 213 217 220 221 221 221 216 210 213 218 221 221 223
343 348 347 342 332 321 311 300 281 256 242 235 225 220 221 221 223 228 234 239 240 227 213 210 213 215 215 215 214 213 213 208 200 195 194 191 186 184 183 185 189 193 196 199 202 205 207 207 208 209 210 214 218 220 220 221 218 215 216 219 223 223 219
356 1 356 351 346 339 333 323 296 255 234 233 229 224 226 228 228 229 231 233 231 218 204 204 211 213 211 212 209 205 203 201 195 189 187 187 185 181 177 177 183 189 193 197 200 203 205 206 206 208 210 214 219 221 222 223 221 219 220 221 224 224 220
360 4 355 349 348 345 344 340 306 255 228 230 234 231 230 229 225 222 221 219 221 217 204 199 207 210 209 209 206 198 193 193 191 186 182 182 181 178 175 176 182 187 192 196 200 202 204 205 206 208 211 215 219 223 224 223 222 220 221 222 224 223 220
360 3 350 343 348 350 347 341 309 264 236 232 236 235 226 217 214 214 212 212 217 217 206 198 202 205 205 205 202 196 191 189 187 185 182 180 178 176 176 180 186 191 194 197 199 199 201 204 206 209 213 216 220 223 224 222 220 220 221 221 222 220 218
0 10 353 345 352 355 352 347 319 273 231 200 223 233 220 207 206 211 212 212 215 213 204 197 196 198 199 198 196 193 189 185 184 182 180 179 178 178 180 184 189 195 198 199 199 200 202 205 207 208 208 209 211 215 217 218 218 219 219 219 218 216 215
354 5 5 3 4 4 9 18 10 328 157 132 158 218 212 198 196 203 205 206 209 206 200 194 191 191 192 191 190 189 184 179 179 179 179 180 182 184 187 189 192 198 204 204 204 207 210 211 212 209 204 200 202 207 212 215 217 218 220 220 217 214 213
52 355 1 33 34 27 23 30 43 73 110 120 126 135 143 147 153 166 177 185 192 192 189 188 187 186 185 186 187 185 179 174 176 179 181 184 188 192 196 198 199 203 209 210 211 213 214 215 218 220 216 210 208 212 216 221 223 222 222 225 223 217 214
44 29 46 67 61 53 51 53 57 64 74 97 124 132 134 136 140 146 151 159 172 178 178 180 180 180 181 184 187 185 182 179 181 184 187 190 194 198 203 205 205 207 211 213 215 216 216 217 220 225 226 223 219 219 221 225 229 229 227 226 226 224 220
23 50 84 87 77 74 81 81 72 66 68 86 121 139 147 149 148 153 158 159 162 166 169 173 175 178 182 186 189 189 189 189 189 191 194 197 200 203 206 208 210 212 214 216 218 219 221 223 224 227 230 231 229 227 227 229 232 236 236 232 227 224 224
10 47 102 102 97 103 110 105 95 88 89 98 113 128 143 149 149 153 163 165 162 163 167 171 176 180 185 189 192 194 196 196 196 198 201 204 207 209 210 211 213 215 217 219 221 223 225 228 229 229 231 232 233 233 234 234 233 234 236 236 230 224 223
Height
2874 2871 2868 2865 2862 2860 2857 2855 2853 2851 2849 2847 2846 2845 2843 2842 2841 2839 2839 2839 2838 2838 2837 2837 2838 2840 2842 2843 2844 2845 2846 2847 2849 2850 2851 2853 2854 2857 2858 2860 2862 2862 2866 2871 2872 2872 2873 2874 2874 2874 2874 2874 2875 2876 2876 2876 2876 2877 2877 2877 2876 2876 2876
2866 2863 2860 2857 2854 2851 2849 2846 2844 2842 2839 2837 2836 2836 2835 2833 2833 2831 2830 2830 2829 2829 2829 2829 2829 2831 2833 2835 2836 2838 2839 2839 2841 2842 2844 2846 2847 2849 2852 2854 2856 2857 2859 2864 2867 2867 2868 2869 2869 2869 2870 2869 2870 2871 2872 2871 2872 2872 2872 2872 2872 2872 2872
2857 2854 2851 2848 2845 2842 2840 2837 2835 2833 2830 2828 2827 2827 2826 2824 2824 2823 2822 2821 2821 2821 2821 2821 2821 2822 2824 2826 2828 2830 2832 2832 2833 2835 2837 2839 2841 2843 2845 2848 2850 2851 2853 2857 2860 2861 2863 2864 2864 2865 2865 2865 2865 2867 2867 2867 2867 2867 2868 2868 2867 2867 2867
2848 2844 2841 2838 2835 2832 2830 2827 2825 2823 2821 2819 2818 2819 2818 2816 2815 2814 2813 2813 2813 2813 2813 2812 2813 2814 2816 2818 2819 2822 2824 2825 2826 2828 2830 2832 2834 2836 2839 2842 2844 2845 2847 2850 2853 2856 2858 2859 2860 2860 2860 2860 2861 2862 2862 2863 2863 2863 2863 2863 2863 2863 2863
2839 2835 2831 2828 2825 2822 2820 2817 2815 2812 2811 2809 2809 2810 2810 2808 2807 2806 2805 2805 2805 2805 2805 2804 2805 2806 2808 2809 2811 2814 2817 2818 2819 2821 2823 2825 2828 2830 2833 2836 2838 2840 2842 2844 2846 2850 2852 2853 2855 2855 2856 2856 2856 2857 2858 2858 2858 2858 2859 2859 2859 2859 2859
2829 2826 2822 2819 2816 2813 2809 2807 2805 2802 2801 2800 2800 2801 2801 2799 2798 2797 2797 2796 2796 2796 2796 2796 2797 2798 2800 2801 2803 2806 2809 2811 2812 2814 2816 2818 2821 2824 2827 2829 2832 2834 2836 2838 2840 2844 2846 2848 2849 2851 2851 2851 2852 2853 2854 2854 2854 2854 2854 2854 2855 2855 2855
2819 2816 2812 2809 2806 2803 2800 2797 2795 2793 2791 2791 2791 2791 2791 2790 2788 2788 2788 2788 2788 2788 2788 2789 2789 2790 2792 2793 2796 2799 2802 2804 2805 2807 2809 2811 2815 2818 2821 2823 2825 2828 2830 2832 2835 2838 2840 2842 2844 2845 2847 2847 2847 2849 2850 2849 2849 2850 2850 2850 2850 2851 2851
2808 2805 2802 2799 2795 2793 2791 2788 2785 2784 2782 2781 2782 2782 2782 2781 2779 2779 2779 2779 2779 2779 2779 2780 2781 2782 2784 2786 2789 2792 2795 2797 2799 2800 2802 2805 2808 2811 2814 2816 2819 2822 2824 2826 2829 2832 2835 2837 2839 2840 2842 2842 2843 2845 2845 2845 2845 2846 2846 2846 2846 2846 2847
2797 2794 2791 2788 2785 2782 2780 2778 2776 2774 2773 2772 2772 2773 2772 2771 2770 2770 2770 2771 2771 2771 2771 2772 2773 2774 2776 2779 2782 2785 2787 2790 2792 2794 2796 2799 2801 2804 2807 2810 2813 2815 2818 2821 2823 2827 2829 2831 2834 2836 2837 2838 2839 2840 2841 2841 2841 2842 2842 2842 2842 2842 2842
2787 2783 2779 2777 2775 2772 2769 2767 2766 2765 2764 2763 2763 2763 2762 2762 2761 2761 2762 2762 2762 2763 2763 2764 2766 2767 2769 2772 2776 2779 2781 2783 2786 2788 2790 2792 2795 2798 2801 2804 2806 2808 2812 2815 2818 2822 2824 2826 2829 2831 2832 2833 2835 2836 2837 2838 2838 2838 2838 2838 2839 2838 2838
2775 2772 2768 2765 2763 2761 2759 2757 2756 2755 2754 2754 2755 2754 2753 2752 2752 2753 2754 2754 2754 2755 2756 2757 2758 2760 2763 2766 2770 2772 2775 2777 2779 2782 2784 2786 2789 2792 2794 2797 2799 2802 2806 2809 2812 2817 2819 2821 2824 2827 2827 2828 2830 2831 2833 2834 2834 2834 2834 2835 2835 2835 2834
2764 2760 2757 2754 2752 2750 2748 2747 2746 2745 2744 2745 2745 2746 2745 2744 2743 2744 2746 2746 2746 2747 2749 2750 2752 2754 2757 2760 2764 2766 2768 2770 2773 2776 2778 2780 2783 2786 2789 2791 2794 2796 2800 2804 2807 2811 2814 2816 2820 2822 2822 2824 2826 2827 2829 2830 2830 2830 2831 2831 2832 2831 2831
2754 2750 2747 2743 2740 2739 2737 2736 2736 2735 2735 2736 2737 2737 2737 2737 2735 2735 2737 2738 2739 2740 2742 2743 2745 2748 2751 2755 2758 2760 2762 2764 2767 2769 2772 2774 2777 2779 2783 2785 2788 2791 2795 2798 2802 2805 2809 2812 2816 2817 2818 2819 2821 2823 2825 2826 2827 2827 2828 2828 2828 2828 2827
2744 2740 2737 2733 2730 2728 2727 2726 2726 2726 2726 2728 2729 2729 2729 2730 2729 2727 2728 2730 2732 2734 2735 2737 2740 2743 2746 2750 2752 2755 2757 2759 2761 2764 2766 2769 2771 2774 2776 2779 2782 2785 2789 2793 2796 2800 2805 2809 2811 2813 2813 2814 2816 2819 2821 2822 2823 2824 2824 2825 2825 2824 2824
2734 2730 2727 2724 2721 2718 2717 2717 2717 2717 2718 2719 2720 2721 2722 2722 2721 2720 2720 2722 2725 2727 2730 2732 2735 2738 2741 2744 2747 2750 2752 2753 2756 2758 2761 2763 2766 2768 2770 2773 2777 2781 2785 2788 2792 2796 2801 2805 2806 2808 2808 2809 2812 2815 2817 2818 2820 2821 2821 2821 2821 2821 2821
2724 2720 2717 2715 2712 2710 2708 2708 2708 2709 2710 2711 2712 2713 2714 2714 2714 2713 2713 2715 2718 2721 2724 2727 2730 2733 2736 2739 2742 2745 2747 2749 2751 2753 2755 2758 2760 2762 2765 2768 2773 2777 2781 2784 2788 2792 2796 2799 2801 2803 2803 2805 2808 2811 2813 2814 2817 2817 2818 2818 2818 2818 2818
2715 2711 2708 2706 2704 2702 2700 2700 2701 2702 2703 2704 2705 2706 2706 2706 2707 2707 2707 2709 2713 2716 2719 2722 2725 2729 2732 2735 2738 2741 2743 2745 2746 2748 2750 2752 2754 2757 2760 2764 2769 2773 2776 2779 2783 2787 2791 2794 2796 2798 2799 2801 2804 2807 2808 2811 2813 2814 2814 2815 2815 2815 2816
2706 2703 2700 2698 2696 2695 2693 2693 2695 2696 2696 2697 2699 2699 2700 2700 2701 2701 2702 2704 2707 2710 2714 2718 2721 2725 2728 2730 2734 2737 2739 2740 2741 2742 2744 2747 2750 2753 2756 2760 2765 2768 2771 2775 2778 2782 2785 2788 2791 2792 2794 2797 2800 2802 2804 2808 2810 2810 2811 2812 2813 2813 2813
2698 2695 2693 2691 2690 2688 2687 2687 2688 2689 2690 2691 2692 2693 2694 2695 2695 2696 2697 2699 2702 2705 2710 2714 2718 2721 2724 2726 2730 2732 2734 2736 2737 2737 2740 2744 2746 2748 2752 2758 2762 2764 2767 2770 2774 2777 2780 2783 2786 2788 2790 2793 2796 2798 2801 2804 2806 2807 2808 2810 2810 2811 2811
2691 2688 2686 2685 2684 2683 2682 2682 2682 2683 2684 2685 2686 2688 2689 2690 2690 2691 2693 2695 2698 2701 2706 2710 2714 2717 2720 2723 2726 2728 2729 2731 2732 2734 2737 2740 2742 2746 2752 2756 2757 2759 2762 2766 2769 2773 2776 2779 2781 2784 2786 2789 2792 2794 2797 2800 2802 2804 2805 2807 2808 2808 2808
2685 2682 2680 2679 2679 2678 2677 2677 2677 2678 2679 2679 2681 2683 2684 2685 2686 2687 2688 2691 2694 2698 2703 2707 2710 2713 2716 2719 2721 2723 2725 2727 2729 2731 2734 2736 2740 2745 2749 2750 2752 2755 2758 2761 2765 2768 2771 2774 2776 2779 2782 2785 2788 2791 2794 2797 2800 2801 2803 2804 2805 2805 2806
2680 2677 2675 2674 2674 2673 2673 2672 2673 2673 2674 2674 2675 2678 2679 2680 2681 2683 2685 2687 2691 2695 2700 2704 2707 2710 2713 2715 2717 2719 2721 2723 2725 2728 2730 2734 2739 2743 2744 2745 2748 2751 2753 2756 2760 2763 2766 2769 2772 2776 2779 2782 2785 2788 2791 2794 2797 2799 2800 2801 2802 2802 2803
2675 2673 2671 2670 2670 2669 2668 2668 2669 2669 2669 2669 2670 2673 2675 2676 2678 2680 2682 2684 2688 2693 2697 2701 2704 2707 2709 2711 2713 2715 2717 2719 2722 2724 2727 2732 2736 2738 2740 2742 2745 2747 2749 2753 2756 2759 2762 2766 2769 2773 2777 2779 2782 2785 2788 2791 2794 2796 2797 2798 2799 2800 2801
2672 2669 2668 2667 2666 2666 2665 2665 2665 2665 2665 2665 2666 2668 2671 2672 2674 2677 2680 2682 2686 2691 2695 2697 2700 2703 2705 2707 2709 2711 2713 2715 2718 2721 2725 2729 2732 2734 2736 2739 2741 2743 2747 2750 2753 2756 2760 2764 2767 2771 2775 2777 2780 2783 2784 2787 2790 2792 2794 2795 2796 2797 2798
2669 2667 2665 2664 2663 2663 2662 2662 2662 2662 2662 2663 2664 2665 2668 2670 2672 2675 2678 2681 2685 2689 2692 2694 2697 2699 2701 2703 2705 2707 2709 2711 2714 2718 2722 2725 2728 2731 2733 2735 2738 2742 2744 2747 2751 2754 2758 2762 2766 2769 2772 2775 2776 2778 2780 2783 2786 2789 2791 2792 2793 2795 2796
2667 2666 2664 2663 2662 2660 2660 2659 2660 2660 2660 2661 2662 2664 2667 2669 2672 2675 2678 2680 2684 2687 2689 2692 2694 2696 2698 2700 2702 2704 2705 2708 2712 2716 2720 2722 2725 2728 2730 2733 2737 2740 2743 2746 2750 2754 2757 2761 2764 2767 2769 2770 2772 2774 2777 2780 2783 2786 2788 2790 2791 2793 2795
2666 2664 2663 2661 2660 2659 2658 2658 2658 2658 2659 2661 2663 2665 2667 2669 2672 2675 2677 2679 2683 2686 2688 2689 2691 2693 2695 2697 2699 2701 2703 2706 2710 2714 2717 2720 2722 2724 2728 2732 2736 2739 2742 2746 2749 2752 2756 2759 2761 2763 2765 2767 2769 2772 2775 2777 2780 2783 2785 2787 2789 2791 2793
2665 2663 2662 2660 2659 2659 2658 2658 2658 2658 2659 2661 2663 2665 2667 2669 2671 2674 2676 2678 2681 2683 2685 2687 2689 2690 2692 2694 2696 2698 2701 2705 2708 2711 2714 2718 2720 2723 2727 2731 2735 2738 2741 2744 2747 2750 2753 2756 2758 2760 2763 2765 2767 2770 2772 2775 2778 2780 2783 2784 2786 2788 2791
2665 2663 2663 2662 2661 2659 2658 2658 2658 2659 2659 2661 2663 2664 2666 2668 2670 2672 2674 2676 2678 2680 2683 2685 2686 2688 2690 2692 2694 2697 2700 2703 2707 2710 2713 2716 2719 2722 2726 2729 2733 2736 2739 2742 2745 2748 2751 2754 2756 2758 2761 2763 2765 2768 2770 2773 2775 2778 2780 2782 2784 2786 2789
2667 2666 2665 2664 2662 2661 2659 2659 2659 2659 2660 2661 2663 2664 2666 2668 2669 2671 2673 2675 2676 2678 2680 2683 2685 2687 2689 2691 2694 2696 2699 2702 2706 2709 2712 2715 2719 2722 2725 2728 2731 2734 2738 2741 2743 2746 2749 2752 2754 2757 2759 2761 2764 2766 2768 2771 2773 2775 2777 2779 2782 2784 2786
2668 2668 2666 2665 2663 2661 2660 2660 2660 2660 2660 2661 2663 2665 2666 2667 2669 2670 2672 2673 2675 2677 2679 2681 2683 2686 2688 2691 2694 2696 2699 2702 2705 2708 2711 2715 2718 2722 2725 2727 2730 2733 2736 2739 2742 2745 2748 2750 2752 2755 2758 2760 2762 2764 2766 2768 2771 2773 2775 2777 2779 2782 2784
2667 2667 2666 2665 2663 2662 2661 2661 2661 2661 2662 2662 2663 2665 2666 2667 2668 2669 2671 2672 2674 2676 2678 2680 2682 2685 2688 2691 2694 2696 2699 2702 2705 2708 2711 2715 2718 2721 2724 2727 2730 2732 2735 2738 2741 2744 2746 2748 2751 2753 2756 2759 2761 2763 2765 2767 2769 2771 2773 2775 2777 2779 2781
2668 2667 2667 2666 2665 2663 2663 2663 2663 2663 2663 2663 2664 2665 2666 2667 2668 2669 2671 2672 2674 2676 2677 2680 2682 2685 2688 2691 2694 2696 2699 2701 2705 2708 2711 2714 2717 2720 2723 2726 2729 2731 2734 2737 2739 2742 2744 2747 2749 2751 2754 2757 2759 2761 2763 2765 2767 2769 2771 2773 2775 2777 2779
2669 2669 2668 2667 2666 2664 2664 2665 2665 2665 2664 2665 2665 2666 2666 2667 2669 2670 2671 2673 2674 2676 2678 2680 2683 2686 2689 2691 2694 2696 2699 2701 2704 2707 2711 2714 2716 2719 2722 2724 2727 2730 2732 2735 2737 2740 2743 2745 2748 2750 2752 2754 2757 2760 2762 2764 2765 2767 2769 2771 2773 2775 2777
2670 2670 2668 2667 2666 2666 2665 2666 2667 2667 2667 2667 2667 2668 2668 2669 2670 2671 2672 2674 2675 2677 2679 2681 2684 2686 2689 2692 2694 2697 2699 2702 2704 2707 2710 2712 2715 2717 2720 2723 2725 2727 2730 2733 2735 2738 2740 2743 2746 2748 2750 2752 2755 2757 2760 2762 2763 2765 2767 2768 2770 2772 2775
2672 2671 2669 2668 2668 2667 2667 2666 2667 2668 2668 2668 2669 2670 2671 2671 2672 2673 2674 2675 2677 2678 2680 2682 2685 2687 2689 2692 2694 2696 2699 2701 2704 2706 2709 2711 2713 2715 2718 2721 2723 2725 2728 2730 2733 2735 2738 2740 2743 2745 2748 2750 2752 2755 2757 2759 2761 2763 2764 2765 2767 2770 2772